Stevens Point, WI

1:07 AM CDT on April 29, 2017 (GMT -0500)
Stevens Point Municipal

Weather History for KSTE - September, 2013

Change the Weather History Date:

Thursday, September 12, 2013

  Actual Average Record
Temperature  
Mean Temperature 57 °F -  
Max Temperature 68 °F 73 °F 93 °F (1948)
Min Temperature 47 °F 51 °F 31 °F (1955)
Degree Days  
Heating Degree Days 8    
Growing Degree Days 7 (Base 50)    
Moisture  
Dew Point 48 °F    
Average Humidity 72    
Maximum Humidity 95    
Minimum Humidity 47    
Precipitation  
Precipitation 0.00 in - - ()
Sea Level Pressure  
Sea Level Pressure 30.08 in    
Wind  
Wind Speed 5 mph (NNW)    
Max Wind Speed 17 mph    
Max Gust Speed 24 mph    
Visibility 10 miles    
Events      
Averages and records for this station are not official NWS values.
T = Trace of Precipitation, MM = Missing Value Source: NWS Daily Summary

Daily Weather History Graph

Daily Weather History Graph

Search for Another Location

Airport or City:

Trip Planner

Search our weather history database for the weather conditions in past years. The results will help you decide how hot, cold, wet, or windy it might be!

Date:

Astronomy

Sep. 12, 2013 Rise Set
Actual Time 6:33 AM CDT 7:13 PM CDT
Civil Twilight 6:04 AM CDT 7:43 PM CDT
Nautical Twilight 5:29 AM CDT 8:17 PM CDT
Astronomical Twilight 4:53 AM CDT 8:54 PM CDT
Moon 2:16 PM CDT (9/12) 11:53 PM CDT (9/12)
Length of Visible Light 13h 38m
Length of Day
12h 40m
Waxing Crescent, 50% of the Moon is Illuminated
Sep 12
Waxing Crescent
Sep 12
First Quarter
Sep 19
Full
Sep 26
Last Quarter
Oct 4
New

Hourly Weather History & Observations

Time (CDT) Temp. Dew Point Humidity Pressure Visibility Wind Dir Wind Speed Gust Speed Precip Events Conditions
12:15 AM 54.5 °F 52.0 °F 91% 30.00 in 10.0 mi Calm Calm - N/A   Clear
12:35 AM 55.4 °F 52.5 °F 90% 30.00 in 10.0 mi Calm Calm - N/A   Clear
12:55 AM 54.0 °F 51.6 °F 92% 30.00 in 10.0 mi Calm Calm - N/A   Clear
1:15 AM 55.2 °F 52.3 °F 90% 29.99 in 10.0 mi Calm Calm - N/A   Clear
1:35 AM 53.6 °F 51.3 °F 92% 29.99 in 10.0 mi Calm Calm - N/A   Mostly Cloudy
1:55 AM 56.7 °F 53.1 °F 88% 30.01 in 10.0 mi North 6.9 mph 20.7 mph N/A   Mostly Cloudy
2:15 AM 57.7 °F 52.2 °F 82% 30.00 in 10.0 mi Calm Calm - N/A   Mostly Cloudy
2:35 AM 55.8 °F 52.0 °F 87% 30.00 in 10.0 mi Calm Calm - N/A   Clear
2:55 AM 54.3 °F 51.4 °F 90% 30.00 in 10.0 mi Calm Calm - N/A   Clear
3:15 AM 53.6 °F 51.4 °F 92% 30.00 in 10.0 mi Calm Calm - N/A   Clear
3:35 AM 53.8 °F 51.1 °F 91% 30.00 in 10.0 mi Calm Calm - N/A   Clear
3:55 AM 52.0 °F 50.5 °F 95% 30.00 in 10.0 mi WSW 4.6 mph - N/A   Mostly Cloudy
4:15 AM 54.7 °F 51.3 °F 88% 29.99 in 10.0 mi Calm Calm - N/A   Mostly Cloudy
4:35 AM 53.6 °F 51.4 °F 92% 30.00 in 10.0 mi Calm Calm - N/A   Scattered Clouds
4:55 AM 51.6 °F 50.0 °F 94% 30.00 in 10.0 mi Calm Calm - N/A   Scattered Clouds
5:15 AM 52.0 °F 50.4 °F 94% 30.01 in 10.0 mi Calm Calm - N/A   Scattered Clouds
5:35 AM 53.6 °F 51.6 °F 93% 30.02 in 10.0 mi North 5.8 mph - N/A   Mostly Cloudy
5:55 AM 53.6 °F 51.3 °F 92% 30.03 in 10.0 mi NNW 4.6 mph - N/A   Scattered Clouds
6:15 AM 53.1 °F 51.1 °F 93% 30.03 in 10.0 mi North 4.6 mph - N/A   Clear
6:35 AM 53.1 °F 51.1 °F 93% 30.04 in 10.0 mi NNW 4.6 mph - N/A   Scattered Clouds
6:55 AM 52.9 °F 50.9 °F 93% 30.04 in 10.0 mi NNW 5.8 mph - N/A   Mostly Cloudy
7:15 AM 53.1 °F 50.9 °F 92% 30.05 in 10.0 mi NNW 8.1 mph - N/A   Scattered Clouds
7:35 AM 53.4 °F 51.1 °F 92% 30.06 in 10.0 mi North 6.9 mph - N/A   Scattered Clouds
7:55 AM 54.5 °F 51.3 °F 89% 30.06 in 10.0 mi NNW 8.1 mph - N/A   Clear
8:15 AM 54.7 °F 51.8 °F 90% 30.07 in 10.0 mi NNW 11.5 mph - N/A   Mostly Cloudy
8:35 AM 54.9 °F 51.8 °F 89% 30.07 in 10.0 mi North 6.9 mph - N/A   Overcast
8:55 AM 57.4 °F 52.0 °F 82% 30.07 in 10.0 mi North 8.1 mph - N/A   Scattered Clouds
9:15 AM 59.0 °F 52.0 °F 78% 30.07 in 10.0 mi North 8.1 mph - N/A   Clear
9:35 AM 60.3 °F 51.8 °F 74% 30.08 in 10.0 mi NNW 11.5 mph - N/A   Clear
9:55 AM 61.7 °F 52.5 °F 72% 30.09 in 10.0 mi NNW 9.2 mph - N/A   Scattered Clouds
10:15 AM 61.2 °F 51.8 °F 71% 30.10 in 10.0 mi NW 11.5 mph 17.3 mph N/A   Mostly Cloudy
10:35 AM 62.4 °F 51.3 °F 67% 30.10 in 10.0 mi North 12.7 mph 17.3 mph N/A   Mostly Cloudy
10:55 AM 61.7 °F 51.1 °F 68% 30.10 in 10.0 mi North 12.7 mph 18.4 mph N/A   Mostly Cloudy
11:15 AM 62.1 °F 51.1 °F 67% 30.11 in 10.0 mi NW 9.2 mph - N/A   Overcast
11:35 AM 61.5 °F 51.1 °F 69% 30.11 in 10.0 mi NW 6.9 mph - N/A   Overcast
11:55 AM 63.5 °F 50.2 °F 62% 30.11 in 10.0 mi NW 8.1 mph - N/A   Mostly Cloudy
12:15 PM 64.4 °F 50.4 °F 60% 30.10 in 10.0 mi NNW 10.4 mph 17.3 mph N/A   Scattered Clouds
12:35 PM 64.0 °F 50.0 °F 60% 30.10 in 10.0 mi NNW 9.2 mph 18.4 mph N/A   Mostly Cloudy
12:55 PM 65.7 °F 50.2 °F 57% 30.09 in 10.0 mi NW 10.4 mph 16.1 mph N/A   Mostly Cloudy
1:15 PM 66.6 °F 49.6 °F 54% 30.09 in 10.0 mi WNW 8.1 mph - N/A   Mostly Cloudy
1:35 PM 66.9 °F 49.6 °F 54% 30.09 in 10.0 mi NW 9.2 mph 19.6 mph N/A   Overcast
1:55 PM 66.6 °F 49.1 °F 53% 30.08 in 10.0 mi NW 11.5 mph 19.6 mph N/A   Mostly Cloudy
2:15 PM 66.7 °F 48.7 °F 52% 30.08 in 10.0 mi NW 10.4 mph 19.6 mph N/A   Mostly Cloudy
2:35 PM 67.8 °F 48.2 °F 49% 30.08 in 10.0 mi North 17.3 mph 21.9 mph N/A   Mostly Cloudy
2:55 PM 67.1 °F 48.0 °F 50% 30.08 in 10.0 mi NNW 12.7 mph 19.6 mph N/A   Scattered Clouds
3:15 PM 66.9 °F 46.4 °F 48% 30.08 in 10.0 mi NNW 11.5 mph 24.2 mph N/A   Scattered Clouds
3:35 PM 66.7 °F 46.0 °F 47% 30.08 in 10.0 mi WNW 11.5 mph 18.4 mph N/A   Scattered Clouds
3:55 PM 66.2 °F 46.4 °F 49% 30.08 in 10.0 mi NW 10.4 mph - N/A   Scattered Clouds
4:15 PM 66.9 °F 46.0 °F 47% 30.08 in 10.0 mi NW 13.8 mph 20.7 mph N/A   Mostly Cloudy
4:35 PM 65.5 °F 46.4 °F 50% 30.09 in 10.0 mi North 11.5 mph - N/A   Mostly Cloudy
4:55 PM 66.7 °F 46.4 °F 48% 30.08 in 10.0 mi NW 8.1 mph 18.4 mph N/A   Scattered Clouds
5:15 PM 65.3 °F 46.6 °F 51% 30.09 in 10.0 mi NNW 13.8 mph 21.9 mph N/A   Scattered Clouds
5:35 PM 64.6 °F 45.9 °F 51% 30.09 in 10.0 mi NNW 12.7 mph 19.6 mph N/A   Mostly Cloudy
5:55 PM 64.4 °F 45.1 °F 50% 30.10 in 10.0 mi NNW 10.4 mph 16.1 mph N/A   Scattered Clouds
6:15 PM 64.0 °F 45.0 °F 50% 30.10 in 10.0 mi NNW 11.5 mph - N/A   Scattered Clouds
6:35 PM 62.8 °F 45.1 °F 53% 30.11 in 10.0 mi NNW 9.2 mph 16.1 mph N/A   Scattered Clouds
6:55 PM 61.2 °F 44.8 °F 55% 30.12 in 10.0 mi North 12.7 mph - N/A   Scattered Clouds
7:15 PM 59.5 °F 44.8 °F 58% 30.13 in 10.0 mi North 12.7 mph 18.4 mph N/A   Clear
7:35 PM 58.3 °F 44.6 °F 60% 30.14 in 10.0 mi North 10.4 mph 20.7 mph N/A   Clear
7:55 PM 57.2 °F 44.6 °F 63% 30.15 in 10.0 mi North 9.2 mph - N/A   Scattered Clouds
8:15 PM 55.9 °F 43.3 °F 63% 30.16 in 10.0 mi North 10.4 mph 16.1 mph N/A   Scattered Clouds
8:35 PM 54.7 °F 42.8 °F 64% 30.17 in 10.0 mi North 8.1 mph - N/A   Clear
8:55 PM 53.8 °F 42.1 °F 65% 30.17 in 10.0 mi North 9.2 mph - N/A   Clear
9:15 PM 53.6 °F 40.6 °F 62% 30.18 in 10.0 mi North 9.2 mph 17.3 mph N/A   Clear
9:35 PM 52.9 °F 40.1 °F 62% 30.18 in 10.0 mi North 8.1 mph - N/A   Clear
9:55 PM 51.8 °F 40.3 °F 65% 30.18 in 10.0 mi North 6.9 mph - N/A   Clear
10:15 PM 50.5 °F 40.6 °F 69% 30.18 in 10.0 mi North 3.5 mph - N/A   Clear
10:35 PM 49.6 °F 40.6 °F 71% 30.19 in 10.0 mi North 3.5 mph - N/A   Clear
10:55 PM 48.7 °F 40.6 °F 74% 30.19 in 10.0 mi Calm Calm - N/A   Clear
11:15 PM 48.0 °F 41.0 °F 77% 30.20 in 10.0 mi NNW 3.5 mph - N/A   Clear
11:35 PM 47.1 °F 40.8 °F 79% 30.20 in 10.0 mi North 3.5 mph - N/A   Clear
11:55 PM 47.1 °F 40.6 °F 78% 30.20 in 10.0 mi North 5.8 mph - N/A   Clear